Charter Quote
Worldwide +44-20-3874-8091 Call
Select Language Lang
SAFETY RELIABILITY EXPERIENCE

Davison Aaf Airport (KDAA) - Jet Charter Services

AIRPORT INFORMATION
ICAOKDAA
IATADAA
LOCATIONFort Belvoir, VA, United States
FACILITY TYPEAIRPORT
Runway Length (ft) Width (ft) Surface Type Elevation (ft)
14/32 5618 74 ASPH 73.96721

At Paramount Business Jets you can hire chartered private jets to and from Davison Aaf Airport with as little as 4 hours of notice. All flights booked via Paramount Business Jets are operated by certified direct air carriers that meet and exceed the FAA part 135 and 121 protocol or a foreign equivalent safety authority. Furthermore, Paramount Business Jets subscribes to ARGUS for their third party safety checks of operators, aircraft, and crews prior each and every flight to and from Davison Aaf Airport and worldwide.

  • Quote a trip using Davison Aaf Airport or call us 24/7 - 365 days a year at +44-20-3874-8091.
Questions? Call +44-20-3874-8091

METAR Weather Data at Davison Aaf Airport, KDAA, DAA

STATIONKDAA
OBSERVEDThu Jun 20, 12:56 UTC
NOWThu Jun 20, 13:00 UTC
AGE4 min ago
WINDcalm
VISIBILITY10 miles
CLOUDSpartly cloudy
TEMP79°F (26°C)
DEWPT73°F (23°C)
HUMIDITY84%
BAROMETER1003 hPa (29.62 in Hg)
METARKDAA 201256Z AUTO 00000KT 10SM FEW012 26/23 A2962 RMK AO2 SLP033 T02600227 $

Call us on +44-20-3874-8091 (24 Hours) to Hire a Private Jet or Get a Quick Quote.

Find Airports Near any Location

Processing
...